Port Hope, MI

2:10 AM EST on January 18, 2018 (GMT -0500)
Port Hope

Weather History for KP58 - November, 2013

Change the Weather History Date:

Tuesday, November 5, 2013

  Actual Average Record
Temperature  
Mean Temperature 50 °F -  
Max Temperature 57 °F 48 °F 72 °F (2015)
Min Temperature 43 °F 36 °F 28 °F (2002)
Degree Days  
Heating Degree Days 15    
Moisture  
Dew Point 41 °F    
Average Humidity 70    
Maximum Humidity 80    
Minimum Humidity 62    
Precipitation  
Precipitation 0.00 in - - ()
Sea Level Pressure  
Sea Level Pressure 30.26 in    
Wind  
Wind Speed 5 mph (South)    
Max Wind Speed 7 mph    
Max Gust Speed -    
Averages and records for this station are not official NWS values.
T = Trace of Precipitation, MM = Missing Value Source: NWS Daily Summary

Daily Weather History Graph

Daily Weather History Graph

Search for Another Location

Airport or City:

Trip Planner

Search our weather history database for the weather conditions in past years. The results will help you decide how hot, cold, wet, or windy it might be!

Date:

Astronomy

Nov. 05, 2013 Rise Set
Actual Time 7:13 AM EST 5:15 PM EST
Civil Twilight 6:42 AM EST 5:46 PM EST
Nautical Twilight 6:08 AM EST 6:20 PM EST
Astronomical Twilight 5:34 AM EST 6:54 PM EST
Moon 9:30 AM EST (11/5) 7:12 PM EST (11/5)
Length of Visible Light 11h 03m
Length of Day
10h 02m
Waxing Crescent, 6% of the Moon is Illuminated
Nov 5
Waxing Crescent
Nov 10
First Quarter
Nov 17
Full
Nov 25
Last Quarter
Dec 2
New

Hourly Weather History & Observations

Time (EST) Temp. Windchill Dew Point Humidity Pressure Visibility Wind Dir Wind Speed Gust Speed Precip Events Conditions
12:51 AM 43.0 °F 39.5 °F 32.0 °F 65% 30.28 in - South 5.8 mph - N/A   Unknown
1:51 AM 43.0 °F 39.5 °F 33.1 °F 68% 30.27 in - South 5.8 mph - N/A   Unknown
2:51 AM 44.1 °F 41.5 °F 34.0 °F 68% 30.27 in - Variable 4.6 mph - N/A   Unknown
3:51 AM 46.9 °F - 36.0 °F 66% 30.27 in - Variable 5.8 mph - N/A   Unknown
4:51 AM 46.9 °F - 37.0 °F 68% 30.27 in - Variable 4.6 mph - N/A   Unknown
5:51 AM 46.9 °F - 37.0 °F 68% 30.27 in - Variable 3.5 mph - N/A   Unknown
6:51 AM 48.0 °F - 37.9 °F 68% 30.28 in - Variable 4.6 mph - N/A   Unknown
7:51 AM 48.0 °F - 39.0 °F 71% 30.30 in - Variable 5.8 mph - N/A   Unknown
8:51 AM 48.9 °F - 39.0 °F 69% 30.31 in - SW 6.9 mph - N/A   Unknown
9:51 AM 50.0 °F - 39.9 °F 68% 30.30 in - Variable 3.5 mph - N/A   Unknown
10:51 AM 51.1 °F - 41.0 °F 68% 30.31 in - SW 5.8 mph - N/A   Unknown
11:51 AM 53.1 °F - 42.1 °F 66% 30.31 in - Variable 6.9 mph - N/A   Unknown
12:51 PM 55.0 °F - 44.1 °F 67% 30.29 in - WSW 5.8 mph - N/A   Unknown
1:51 PM 57.0 °F - 45.0 °F 64% 30.28 in - Variable 6.9 mph - N/A   Unknown
2:51 PM 57.0 °F - 44.1 °F 62% 30.27 in - Variable 3.5 mph - N/A   Unknown
3:51 PM 57.0 °F - 45.0 °F 64% 30.27 in - Variable 5.8 mph - N/A   Unknown
4:51 PM 53.1 °F - 44.1 °F 71% 30.26 in - SSE 3.5 mph - N/A   Unknown
5:51 PM 50.0 °F - 44.1 °F 80% 30.26 in - South 3.5 mph - N/A   Unknown
6:51 PM 51.1 °F - 44.1 °F 77% 30.25 in - SSE 5.8 mph - N/A   Unknown
7:51 PM 51.1 °F - 43.0 °F 74% 30.22 in - Variable 4.6 mph - N/A   Unknown
8:51 PM 51.1 °F - 43.0 °F 74% 30.21 in - Variable 3.5 mph - N/A   Unknown
9:51 PM 52.0 °F - 44.1 °F 74% 30.19 in - Variable 4.6 mph - N/A   Unknown
10:51 PM 52.0 °F - 44.1 °F 74% 30.17 in - South 6.9 mph - N/A   Unknown
11:51 PM 51.1 °F - 45.0 °F 80% 30.12 in - SSE 6.9 mph - N/A   Unknown